Wind_Speed
2 1 4 5 8 10 12 12 12 14 17 19 19 19 19 18 17 16 18 17 14 13
1 3 6 7 7 8 9 11 12 16 19 20 20 19 19 19 17 18 15 13 12 13
3 4 3 3 4 6 10 14 17 18 20 20 19 18 18 16 18 16 14 13 13 14
3 1 2 3 6 9 13 16 17 19 21 19 17 15 14 16 16 14 14 13 12 14
2 3 4 5 8 11 14 16 18 19 18 16 14 14 13 14 12 11 12 12 13 15
4 4 5 7 10 13 16 18 18 17 17 15 13 14 12 10 10 9 10 11 14 19
5 5 6 8 12 15 16 17 16 17 16 11 12 11 9 7 8 9 11 14 17 19
6 6 7 11 14 16 16 15 15 14 11 10 8 4 5 7 8 11 14 16 16 16
7 7 10 13 15 15 15 14 14 12 9 5 4 6 5 6 10 13 14 15 16 16
7 9 12 14 14 14 14 13 12 10 7 5 3 5 6 10 11 12 12 14 15 16
9 12 13 13 14 13 13 11 11 9 8 6 5 6 8 11 9 11 12 13 14 15
11 13 12 12 13 13 11 12 12 10 9 8 7 9 9 9 10 11 14 13 14 14
13 12 12 12 13 13 12 11 9 9 8 8 8 10 9 8 9 12 14 14 14 12
12 11 12 13 14 14 13 12 9 8 9 10 11 10 11 9 7 11 13 14 15 14
Wind_Direction
143 306 308 305 301 296 299 300 304 303 305 304 299 292 287 285 287 292 296 294 290 291
131 304 302 302 299 292 301 306 309 309 307 305 301 294 289 287 292 300 294 286 287 293
273 294 303 307 300 313 314 314 312 309 309 306 301 295 292 289 299 297 287 284 286 290
221 244 278 284 314 319 318 316 312 309 307 304 300 293 292 294 298 290 277 284 285 289
244 268 274 305 313 316 316 314 311 308 304 299 296 294 296 291 283 270 284 289 288 292
265 268 291 305 312 312 313 312 310 308 304 298 292 300 293 271 280 284 292 294 297 299
277 278 292 302 308 309 310 311 312 310 304 292 297 291 285 282 285 292 297 301 302 302
276 271 287 300 305 309 311 311 315 318 307 295 293 295 295 295 298 303 305 305 304 304
262 271 290 299 306 307 307 308 306 315 305 297 290 284 298 303 310 306 307 310 310 309
265 285 296 302 304 305 304 307 303 299 287 270 237 269 300 312 313 307 312 313 314 314
273 286 295 297 303 306 304 296 293 287 267 244 238 276 303 318 312 311 316 316 316 315
282 289 292 295 306 305 296 294 288 275 247 249 254 280 301 320 314 315 317 317 317 317
286 287 288 295 306 303 285 285 296 268 239 254 267 279 290 308 313 315 315 317 319 322
285 287 288 296 301 297 290 287 276 251 251 266 273 276 277 290 307 312 314 315 319 321
Height
859 859 859 860 859 859 858 857 857 856 854 852 849 847 844 842 840 839 837 836 835 834
858 858 858 858 857 857 857 855 854 852 849 846 844 841 839 837 835 834 833 833 832 831
857 856 856 855 855 855 854 853 850 848 845 842 839 836 835 833 831 830 830 829 828 827
854 854 854 854 853 852 851 849 846 844 841 838 835 833 832 830 828 828 827 826 825 824
851 852 852 851 850 849 847 846 843 840 837 833 831 831 828 826 826 824 823 822 822 821
849 849 848 848 847 846 844 842 839 836 832 829 828 827 826 824 822 822 821 821 820 818
845 845 845 845 844 843 841 838 834 831 828 827 825 824 823 822 821 820 819 818 817 815
843 843 843 842 841 840 837 834 832 828 825 824 822 822 822 821 820 819 818 816 814 812
841 841 840 839 837 835 833 830 829 826 823 822 822 820 820 820 819 817 815 813 811 808
839 838 837 836 834 831 829 828 826 824 822 821 820 819 818 818 817 815 813 811 808 805
835 834 832 832 830 827 826 824 823 821 820 819 818 817 816 815 814 813 811 808 806 803
833 831 829 828 826 823 824 821 819 817 816 817 816 815 814 813 812 810 808 806 803 801
829 827 825 823 822 819 819 817 816 814 813 813 814 812 811 811 809 808 805 802 800 798
824 822 821 820 818 816 815 813 812 811 811 811 810 810 808 807 807 805 803 800 797 795